"Period start","avg(HW err(1)/warn(2) (#))","avg(Visibility (m))","avg(Weather code (#))","avg(Precip intensity (mm/h))","min(HW err(1)/warn(2) (#))","max(HW err(1)/warn(2) (#))","std(HW err(1)/warn(2) (#))","med(HW err(1)/warn(2) (#))","min(Visibility (m))","max(Visibility (m))","std(Visibility (m))","med(Visibility (m))","min(Weather code (#))","max(Weather code (#))","std(Weather code (#))","med(Weather code (#))","min(Precip intensity (mm/h))","max(Precip intensity (mm/h))","std(Precip intensity (mm/h))","med(Precip intensity (mm/h))"
2016-06-22 00:00:00,0,38484,54,1.11,0,0,0,0,31309,45495,5118,39656,52,61,4,52,0.45,1.65,0.35,1.10
2016-06-22 00:10:00,0,46058,52,0.75,0,0,0,0,40554,50000,2731,45868,52,52,0,52,0.30,1.70,0.44,0.62
2016-06-22 00:20:00,0,46073,59,1.58,0,0,0,0,39094,50000,3527,46734,52,61,4,61,0.55,2.90,0.74,1.62
2016-06-22 00:30:00,0,40240,61,2.19,0,0,0,0,34774,50000,5235,39156,61,61,0,61,1.35,4.20,0.90,1.78
2016-06-22 00:40:00,0,39753,61,2.56,0,0,0,0,28220,50000,6102,38781,61,61,0,61,1.35,4.95,0.95,2.47
2016-06-22 00:50:00,0,32492,61,5.97,0,0,0,0,25158,41780,5631,31348,61,62,0,61,2.40,14.15,3.37,5.28
2016-06-22 01:00:00,0,27516,61,8.95,0,0,0,0,6538,48330,14961,27686,61,62,0,61,2.00,22.50,5.82,8.43
2016-06-22 01:10:00,0,13441,61,3.64,0,0,0,0,5610,26348,5834,12280,61,62,0,61,0.30,17.20,4.64,2.17
2016-06-22 01:20:00,0,29065,23,0.04,0,0,0,0,14779,44147,9357,28766,0,61,29,0,0.00,0.20,0.06,0.00
2016-06-22 01:30:00,0,32525,38,0.40,0,0,0,0,14905,46097,9794,33532,0,61,25,52,0.00,1.15,0.38,0.28
2016-06-22 01:40:00,0,27206,57,2.35,0,0,0,0,19417,35930,4552,27632,52,61,4,61,1.15,6.55,1.49,1.98
2016-06-22 01:50:00,0,26682,61,1.99,0,0,0,0,19346,33550,4732,28180,61,61,0,61,0.75,3.95,0.98,2.02
2016-06-22 02:00:00,0,22057,59,0.83,0,0,0,0,15704,30026,4673,20924,51,61,4,61,0.15,1.95,0.53,0.68
2016-06-22 02:10:00,0,19482,54,1.56,0,0,0,0,13001,29891,5227,19838,52,61,4,52,0.15,3.35,1.10,1.08
2016-06-22 02:20:00,0,40807,54,0.74,0,0,0,0,29942,50000,6248,41198,51,61,4,52,0.25,1.55,0.40,0.60
2016-06-22 02:30:00,0,49866,54,0.73,0,0,0,0,49293,50000,235,50000,51,61,5,51,0.25,1.55,0.35,0.70
2016-06-22 02:40:00,0,45686,51,0.40,0,0,0,0,37249,50000,4931,48756,51,51,0,51,0.00,0.80,0.26,0.47
2016-06-22 02:50:00,1,39030,52,0.78,0,2,1,2,25359,50000,7644,40076,51,52,0,52,0.15,1.60,0.38,0.70
2016-06-22 03:00:00,2,31723,52,0.80,2,2,0,2,24821,44209,5992,29474,51,52,0,52,0.15,1.35,0.38,0.85
2016-06-22 03:10:00,2,37800,53,1.16,2,2,0,2,28300,49566,6183,38143,51,61,3,52,0.30,2.25,0.56,1.25
2016-06-22 03:20:00,2,41791,59,1.30,2,2,0,2,28512,50000,6737,42989,52,61,4,61,0.10,2.35,0.63,1.23
2016-06-22 03:30:00,2,41211,61,1.47,2,2,0,2,26404,50000,7653,42178,61,61,0,61,0.25,3.55,1.17,1.22
2016-06-22 03:40:00,2,29362,61,1.68,2,2,0,2,22374,39538,4488,28621,61,61,0,61,0.40,3.60,1.00,1.35
2016-06-22 03:50:00,2,33754,61,2.73,2,2,0,2,19411,48092,8314,33370,61,62,0,61,1.00,11.50,3.00,1.58
2016-06-22 04:00:00,2,18996,61,3.19,2,2,0,2,15019,30121,4502,17370,61,61,0,61,1.00,4.85,1.32,3.75
2016-06-22 04:10:00,2,19815,61,2.47,2,2,0,2,12221,28865,5229,19890,61,61,0,61,0.30,4.75,1.57,2.08
2016-06-22 04:20:00,2,35062,61,1.22,2,2,0,2,20253,42126,6821,36986,61,61,0,61,0.05,3.15,0.86,0.85
2016-06-22 04:30:00,2,33356,59,1.24,2,2,0,2,20450,43288,6223,35203,52,61,4,61,0.45,3.65,0.92,0.90
2016-06-22 04:40:00,2,36433,51,0.18,2,2,0,2,27009,47741,7284,33144,51,52,0,51,0.05,0.50,0.13,0.15
2016-06-22 04:50:00,2,45952,56,1.40,2,2,0,2,36463,50000,4970,48570,51,61,5,56,0.05,3.40,0.98,1.20
2016-06-22 05:00:00,2,40105,61,1.29,2,2,0,2,26280,50000,7204,39289,61,61,0,61,0.30,2.80,0.85,1.20
2016-06-22 05:10:00,2,47416,53,0.50,2,2,0,2,40532,50000,3394,50000,51,61,4,51,0.05,1.45,0.48,0.28
2016-06-22 05:20:00,2,49776,18,0.07,2,2,0,2,47755,50000,674,50000,0,61,28,0,0.00,0.65,0.19,0.00
2016-06-22 05:30:00,2,49407,0,0.00,2,2,0,2,44069,50000,1779,50000,0,0,0,0,0.00,0.00,0.00,0.00
2016-06-22 05:40:00,2,50000,0,0.00,2,2,0,2,50000,50000,0,50000,0,0,0,0,0.00,0.00,0.00,0.00
2016-06-22 05:50:00,2,49960,0,0.00,2,2,0,2,49595,50000,122,50000,0,0,0,0,0.00,0.00,0.00,0.00
2016-06-22 06:00:00,2,49994,0,0.00,2,2,0,2,49939,50000,18,50000,0,0,0,0,0.00,0.00,0.00,0.00
2016-06-22 06:10:00,2,49755,0,0.00,2,2,0,2,48504,50000,505,50000,0,0,0,0,0.00,0.00,0.00,0.00
2016-06-22 06:20:00,2,50000,0,0.00,2,2,0,2,50000,50000,0,50000,0,0,0,0,0.00,0.00,0.00,0.00
2016-06-22 06:30:00,2,50000,0,0.00,2,2,0,2,50000,50000,0,50000,0,0,0,0,0.00,0.00,0.00,0.00
2016-06-22 06:40:00,2,50000,0,0.00,2,2,0,2,50000,50000,0,50000,0,0,0,0,0.00,0.00,0.00,0.00
2016-06-22 06:50:00,1,48015,0,0.00,0,2,1,0,42700,50000,2755,49440,0,0,0,0,0.00,0.00,0.00,0.00
2016-06-22 07:00:00,1,46394,0,0.00,0,2,1,2,37782,50000,4112,48319,0,0,0,0,0.00,0.00,0.00,0.00
2016-06-22 07:10:00,2,43200,0,0.00,2,2,0,2,34170,50000,5375,44026,0,0,0,0,0.00,0.00,0.00,0.00
2016-06-22 07:20:00,2,39602,18,0.50,0,2,1,2,31497,48964,5521,39584,0,61,28,0,0.00,2.10,0.79,0.00
2016-06-22 07:30:00,2,31216,61,2.77,2,2,0,2,15305,50000,11935,31814,61,61,0,61,0.15,5.20,1.73,2.10
2016-06-22 07:40:00,2,36096,60,1.19,2,2,0,2,26956,45795,6666,33318,51,61,3,61,0.15,5.50,1.54,0.68
2016-06-22 07:50:00,2,47636,51,0.47,2,2,0,2,43408,50000,2332,48478,51,52,0,51,0.10,1.15,0.37,0.30
2016-06-22 08:00:00,2,49805,20,0.03,0,2,1,2,48047,50000,586,50000,0,51,25,0,0.00,0.10,0.04,0.00
2016-06-22 08:10:00,2,48628,0,0.00,0,2,1,2,40768,50000,2942,50000,0,0,0,0,0.00,0.00,0.00,0.00
2016-06-22 08:20:00,0,49728,0,0.00,0,0,0,0,47284,50000,815,50000,0,0,0,0,0.00,0.00,0.00,0.00
2016-06-22 08:30:00,0,49840,0,0.00,0,0,0,0,48700,50000,390,50000,0,0,0,0,0.00,0.00,0.00,0.00
2016-06-22 08:40:00,0,26297,28,1.92,0,0,0,0,3180,50000,21120,21154,0,61,28,26,0.00,7.95,2.93,0.10
2016-06-22 08:50:00,1,16635,28,2.15,0,2,1,1,4370,45851,14901,8642,0,53,24,31,0.00,9.10,2.94,0.50
2016-06-22 09:00:00,0,49383,0,0.00,0,2,1,0,45529,50000,1381,50000,0,0,0,0,0.00,0.00,0.00,0.00
2016-06-22 09:10:00,0,31756,25,3.31,0,0,0,0,9812,50000,18378,34372,0,62,30,0,0.00,11.30,4.52,0.00
2016-06-22 09:20:00,1,7698,62,11.41,0,2,1,2,6677,9740,892,7660,61,62,0,62,3.50,22.75,6.34,9.35
2016-06-22 09:30:00,1,7811,61,11.39,0,2,1,1,5676,11766,1621,7870,61,62,0,61,5.90,23.65,6.13,8.40
2016-06-22 09:40:00,0,10552,61,3.55,0,0,0,0,8247,15453,2332,9646,61,61,0,61,0.30,8.75,2.43,3.90
2016-06-22 09:50:00,0,19684,61,0.76,0,0,0,0,8903,38108,10581,17273,61,61,0,61,0.10,2.40,0.64,0.60
2016-06-22 10:00:00,0,39839,5,0.00,0,0,0,0,17538,50000,10997,43716,0,51,15,0,0.00,0.00,0.00,0.00
2016-06-22 10:10:00,0,39661,0,0.00,0,0,0,0,13645,50000,13981,47248,0,0,0,0,0.00,0.00,0.00,0.00
2016-06-22 10:20:00,0,23040,0,0.00,0,0,0,0,12723,36616,7777,20214,0,0,0,0,0.00,0.00,0.00,0.00
2016-06-22 10:30:00,0,19701,33,0.17,0,0,0,0,14722,26965,4471,18660,0,61,27,51,0.00,0.80,0.25,0.03
2016-06-22 10:40:00,0,38410,53,0.77,0,0,0,0,20452,50000,8548,39914,51,61,4,52,0.00,2.30,0.63,0.70
2016-06-22 10:50:00,0,20367,43,1.66,0,0,0,0,4622,45924,11965,18490,0,61,22,52,0.00,6.85,2.58,0.45
2016-06-22 11:00:00,1,7978,58,6.00,0,2,1,0,5961,8934,891,8342,52,62,4,61,2.00,18.80,4.77,3.93
2016-06-22 11:10:00,2,11178,56,1.16,2,2,0,2,7929,15911,3048,10342,52,61,4,56,0.25,2.75,0.88,0.85
2016-06-22 11:20:00,2,22691,59,3.20,2,2,0,2,9203,44451,12025,17646,52,61,4,61,0.05,11.40,3.98,1.02
2016-06-22 11:30:00,2,48872,6,0.00,2,2,0,2,43323,50000,2068,50000,0,61,18,0,0.00,0.00,0.00,0.00
2016-06-22 11:40:00,2,46881,0,0.00,2,2,0,2,39818,50000,3360,48177,0,0,0,0,0.00,0.00,0.00,0.00
2016-06-22 11:50:00,0,41912,0,0.00,0,2,1,0,27927,48699,6466,44490,0,0,0,0,0.00,0.00,0.00,0.00
2016-06-22 12:00:00,0,33862,28,0.35,0,0,0,0,17666,50000,11738,32266,0,61,29,26,0.00,1.95,0.59,0.03
2016-06-22 12:10:00,0,49590,21,0.03,0,0,0,0,45901,50000,1230,50000,0,61,26,0,0.00,0.10,0.04,0.00
2016-06-22 12:20:00,0,50000,0,0.00,0,0,0,0,50000,50000,0,50000,0,0,0,0,0.00,0.00,0.00,0.00
2016-06-22 12:30:00,0,50000,0,0.00,0,0,0,0,50000,50000,0,50000,0,0,0,0,0.00,0.00,0.00,0.00
2016-06-22 12:40:00,0,50000,0,0.00,0,0,0,0,50000,50000,0,50000,0,0,0,0,0.00,0.00,0.00,0.00
2016-06-22 12:50:00,0,50000,0,0.00,0,0,0,0,50000,50000,0,50000,0,0,0,0,0.00,0.00,0.00,0.00
2016-06-22 13:00:00,0,50000,0,0.00,0,0,0,0,50000,50000,0,50000,0,0,0,0,0.00,0.00,0.00,0.00
2016-06-22 13:10:00,0,50000,0,0.00,0,0,0,0,50000,50000,0,50000,0,0,0,0,0.00,0.00,0.00,0.00
2016-06-22 13:20:00,0,49880,0,0.00,0,0,0,0,48804,50000,359,50000,0,0,0,0,0.00,0.00,0.00,0.00
2016-06-22 13:30:00,0,50000,0,0.00,0,0,0,0,50000,50000,0,50000,0,0,0,0,0.00,0.00,0.00,0.00
2016-06-22 13:40:00,0,50000,0,0.00,0,0,0,0,50000,50000,0,50000,0,0,0,0,0.00,0.00,0.00,0.00
2016-06-22 13:50:00,1,50000,0,0.00,0,2,1,2,50000,50000,0,50000,0,0,0,0,0.00,0.00,0.00,0.00
2016-06-22 14:00:00,2,50000,0,0.00,2,2,0,2,50000,50000,0,50000,0,0,0,0,0.00,0.00,0.00,0.00
2016-06-22 14:10:00,2,50000,0,0.00,0,2,1,2,50000,50000,0,50000,0,0,0,0,0.00,0.00,0.00,0.00
2016-06-22 14:20:00,2,50000,0,0.00,0,2,1,2,50000,50000,0,50000,0,0,0,0,0.00,0.00,0.00,0.00
2016-06-22 14:30:00,2,50000,0,0.00,2,2,0,2,50000,50000,0,50000,0,0,0,0,0.00,0.00,0.00,0.00
2016-06-22 14:40:00,2,50000,0,0.00,2,2,0,2,50000,50000,0,50000,0,0,0,0,0.00,0.00,0.00,0.00
2016-06-22 14:50:00,2,50000,0,0.00,2,2,0,2,50000,50000,0,50000,0,0,0,0,0.00,0.00,0.00,0.00
2016-06-22 15:00:00,2,50000,0,0.00,2,2,0,2,50000,50000,0,50000,0,0,0,0,0.00,0.00,0.00,0.00
2016-06-22 15:10:00,2,50000,0,0.00,2,2,0,2,50000,50000,0,50000,0,0,0,0,0.00,0.00,0.00,0.00
2016-06-22 15:20:00,2,50000,0,0.00,2,2,0,2,50000,50000,0,50000,0,0,0,0,0.00,0.00,0.00,0.00
2016-06-22 15:30:00,2,49960,0,0.00,2,2,0,2,49602,50000,119,50000,0,0,0,0,0.00,0.00,0.00,0.00
2016-06-22 15:40:00,2,49928,0,0.00,2,2,0,2,49282,50000,215,50000,0,0,0,0,0.00,0.00,0.00,0.00
2016-06-22 15:50:00,2,49926,0,0.00,2,2,0,2,49262,50000,221,50000,0,0,0,0,0.00,0.00,0.00,0.00
2016-06-22 16:00:00,2,50000,0,0.00,2,2,0,2,50000,50000,0,50000,0,0,0,0,0.00,0.00,0.00,0.00
2016-06-22 16:10:00,2,50000,0,0.00,2,2,0,2,50000,50000,0,50000,0,0,0,0,0.00,0.00,0.00,0.00
2016-06-22 16:20:00,2,50000,0,0.00,2,2,0,2,50000,50000,0,50000,0,0,0,0,0.00,0.00,0.00,0.00
2016-06-22 16:30:00,2,50000,0,0.00,2,2,0,2,50000,50000,0,50000,0,0,0,0,0.00,0.00,0.00,0.00
2016-06-22 16:40:00,2,47565,0,0.00,2,2,0,2,40843,50000,3500,49675,0,0,0,0,0.00,0.00,0.00,0.00
2016-06-22 16:50:00,2,50000,0,0.00,2,2,0,2,50000,50000,0,50000,0,0,0,0,0.00,0.00,0.00,0.00
2016-06-22 17:00:00,2,50000,0,0.00,2,2,0,2,50000,50000,0,50000,0,0,0,0,0.00,0.00,0.00,0.00
2016-06-22 17:10:00,0,50000,0,0.00,0,2,1,0,50000,50000,0,50000,0,0,0,0,0.00,0.00,0.00,0.00
2016-06-22 17:20:00,0,50000,0,0.00,0,0,0,0,50000,50000,0,50000,0,0,0,0,0.00,0.00,0.00,0.00
2016-06-22 17:30:00,0,49994,0,0.00,0,0,0,0,49937,50000,19,50000,0,0,0,0,0.00,0.00,0.00,0.00
2016-06-22 17:40:00,0,49816,0,0.00,0,0,0,0,48159,50000,552,50000,0,0,0,0,0.00,0.00,0.00,0.00
2016-06-22 17:50:00,1,49988,0,0.00,0,2,1,2,49878,50000,37,50000,0,0,0,0,0.00,0.00,0.00,0.00
2016-06-22 18:00:00,2,50000,0,0.00,2,2,0,2,50000,50000,0,50000,0,0,0,0,0.00,0.00,0.00,0.00
2016-06-22 18:10:00,2,50000,0,0.00,2,2,0,2,50000,50000,0,50000,0,0,0,0,0.00,0.00,0.00,0.00
2016-06-22 18:20:00,2,50000,0,0.00,2,2,0,2,50000,50000,0,50000,0,0,0,0,0.00,0.00,0.00,0.00
2016-06-22 18:30:00,2,50000,0,0.00,2,2,0,2,50000,50000,0,50000,0,0,0,0,0.00,0.00,0.00,0.00
2016-06-22 18:40:00,2,50000,0,0.00,2,2,0,2,50000,50000,0,50000,0,0,0,0,0.00,0.00,0.00,0.00
2016-06-22 18:50:00,2,49929,0,0.00,2,2,0,2,49293,50000,212,50000,0,0,0,0,0.00,0.00,0.00,0.00
2016-06-22 19:00:00,2,49755,0,0.00,2,2,0,2,47679,50000,693,50000,0,0,0,0,0.00,0.00,0.00,0.00
2016-06-22 19:10:00,2,50000,0,0.00,2,2,0,2,50000,50000,0,50000,0,0,0,0,0.00,0.00,0.00,0.00
2016-06-22 19:20:00,2,49978,0,0.00,2,2,0,2,49784,50000,65,50000,0,0,0,0,0.00,0.00,0.00,0.00
2016-06-22 19:30:00,2,49888,0,0.00,2,2,0,2,48898,50000,330,50000,0,0,0,0,0.00,0.00,0.00,0.00
2016-06-22 19:40:00,2,49892,0,0.00,2,2,0,2,48917,50000,325,50000,0,0,0,0,0.00,0.00,0.00,0.00
2016-06-22 19:50:00,2,49924,0,0.00,2,2,0,2,49240,50000,228,50000,0,0,0,0,0.00,0.00,0.00,0.00
2016-06-22 20:00:00,2,49171,0,0.00,2,2,0,2,44344,50000,1790,50000,0,0,0,0,0.00,0.00,0.00,0.00
2016-06-22 20:10:00,2,49861,0,0.00,2,2,0,2,48607,50000,418,50000,0,0,0,0,0.00,0.00,0.00,0.00
2016-06-22 20:20:00,2,49756,0,0.00,2,2,0,2,48610,50000,493,50000,0,0,0,0,0.00,0.00,0.00,0.00
2016-06-22 20:30:00,2,50000,0,0.00,2,2,0,2,50000,50000,0,50000,0,0,0,0,0.00,0.00,0.00,0.00
2016-06-22 20:40:00,2,48719,0,0.00,2,2,0,2,44635,50000,1983,50000,0,0,0,0,0.00,0.00,0.00,0.00
2016-06-22 20:50:00,2,49678,0,0.00,2,2,0,2,47665,50000,721,50000,0,0,0,0,0.00,0.00,0.00,0.00
2016-06-22 21:00:00,2,49153,0,0.00,2,2,0,2,45692,50000,1694,50000,0,0,0,0,0.00,0.00,0.00,0.00
2016-06-22 21:10:00,2,49876,0,0.00,2,2,0,2,48757,50000,373,50000,0,0,0,0,0.00,0.00,0.00,0.00
2016-06-22 21:20:00,2,49062,0,0.00,2,2,0,2,43812,50000,1992,50000,0,0,0,0,0.00,0.00,0.00,0.00
2016-06-22 21:30:00,2,48134,0,0.00,2,2,0,2,39888,50000,2948,49383,0,0,0,0,0.00,0.00,0.00,0.00
2016-06-22 21:40:00,2,48542,0,0.00,2,2,0,2,41972,50000,2587,50000,0,0,0,0,0.00,0.00,0.00,0.00
2016-06-22 21:50:00,2,49867,0,0.00,2,2,0,2,48672,50000,398,50000,0,0,0,0,0.00,0.00,0.00,0.00
2016-06-22 22:00:00,2,50000,0,0.00,2,2,0,2,50000,50000,0,50000,0,0,0,0,0.00,0.00,0.00,0.00
2016-06-22 22:10:00,2,46391,0,0.00,2,2,0,2,41087,50000,3359,45900,0,0,0,0,0.00,0.00,0.00,0.00
2016-06-22 22:20:00,2,46209,0,0.00,2,2,0,2,37271,50000,4544,49046,0,0,0,0,0.00,0.00,0.00,0.00
2016-06-22 22:30:00,2,37099,0,0.00,2,2,0,2,16695,50000,10509,36515,0,0,0,0,0.00,0.00,0.00,0.00
2016-06-22 22:40:00,2,48467,0,0.00,2,2,0,2,43792,50000,1996,49682,0,0,0,0,0.00,0.00,0.00,0.00
2016-06-22 22:50:00,2,31264,0,0.00,2,2,0,2,15033,50000,11768,31572,0,0,0,0,0.00,0.00,0.00,0.00
2016-06-22 23:00:00,2,36930,0,0.00,2,2,0,2,19835,44453,7456,39744,0,0,0,0,0.00,0.00,0.00,0.00
2016-06-22 23:10:00,2,46460,0,0.00,2,2,0,2,37569,50000,4251,47930,0,0,0,0,0.00,0.00,0.00,0.00
2016-06-22 23:20:00,2,46360,0,0.00,2,2,0,2,35382,50000,4654,48928,0,0,0,0,0.00,0.00,0.00,0.00
2016-06-22 23:30:00,2,43919,0,0.00,2,2,0,2,29314,50000,7031,47268,0,0,0,0,0.00,0.00,0.00,0.00
2016-06-22 23:40:00,2,39086,0,0.00,2,2,0,2,11624,50000,12455,45556,0,0,0,0,0.00,0.00,0.00,0.00
2016-06-22 23:50:00,2,41543,0,0.00,2,2,0,2,18771,50000,9091,44072,0,0,0,0,0.00,0.00,0.00,0.00
